星链-37654(STARLINK-37654)

导读

STARLINK-37654(NORAD编号69141)是SpaceX星链(Starlink)卫星互联网项目的一员,属于该星座批量部署的低轨通信卫星。星链项目旨在构建覆盖全球的低成本太空互联网系统,这类卫星运行于地球低轨道(高度多低于600公里),通过卫星群为全球提供宽带网络服务。 该卫星遵循SpaceX的空间可持续性设计:若发生故障,会在大气阻力作用下5年内自然离轨,再入大气层时会完全烧毁,对地面威胁几乎为零,同时项目采用主动脱轨策略减少空间碎片。作为星链扩容的组成部分,它服务于全球网络覆盖的扩展。

基本信息
目录编号:
69141
目录名称:
STARLINK-37654
国际标识:
2026-110T
轨道中心:
EARTH
卫星名称:
星链-37654
卫星全名:
星链-37654(STARLINK-37654)
卫星状态:
在轨 (已飞行69 天)
发射日期:
2026-05-20 UTC
国别 :
美国 (US)
星等 :
--
轨道信息
数据来源 国际轨道数据 AOE轨道数据
星历时间 2026-07-27T11:09:27+0800
21小时前
查看轨道信息
2026-07-28T02:00:00+0800
6小时前
查看轨道信息
半长轴 6843.685km 6843.691km
偏心率 0.0001899 0.0001978
轨道倾角 97.286° 97.286°
近地点辐角 90.696° 92.214°
升交点赤经 44.017° 44.627°
平近点角 269.450° 79.724°
近地点 464.248km 464.2km
远地点 466.848km 466.908km
周期 93.906分钟 93.906分钟
每日圈数 15.334436 15.334416
详细信息
固有亮度:
5
最大亮度:
2.5
卫星平台:
Starlink V1.0
覆盖范围:
全球
运营商:
太空探索技术公司
运营商所在国:
美国
制造商(研发单位):
太空探索技术公司
制造商所在国:
美国
使用方式:
暂无
卫星简介
Starlink 计划是 SpaceX 推出的全球卫星互联网项目,通过发射低轨道卫星,为全球尤其是偏远地区提供高速、低延迟的互联网服务。自 2019 年起,Starlink 已部署数千颗卫星,旨在缩小全球数字鸿沟,推动互联网普及。该项目还为军事、航空等行业提供通信支持,带来广泛经济效益。
2D轨道图
3D轨道图
轨道高度分析图
轨道倾角分析图
轨道综合分析图
查看轨道综合分析图